sat.trackr.live / text

‹ back to catalog

ONEWEB-0468

NORAD 51652 · 2022-012AG

PAYLOAD ACTIVE UNKNOWN

§ Identity

Operator
Country
UK
Launch date
2022-02-10
Launch site
FRGUI
Launch vehicle
Mass (kg)
RCS (m²)

Purposes: comms

External: N2YO · Heavens-Above · Gunter

§ Orbital elements

Epoch: 2026-05-25T03:10:30.671616Z

Period
109.89 min
Inclination
87.8857°
Eccentricity
0.0001859
Mean motion
13.10378280 rev/d
Perigee alt
1,220.3 km
Apogee alt
1,223.1 km
Semi-major
7,599.8 km
B*
-9.8030e-4
RAAN
40.8650°
Arg perigee
68.2142°
Mean anomaly
291.9183°
Rev number
20,628

§ Raw data

ONEWEB-04681 51652U 22012AG  26145.13229944 -.00000330  00000+0 -98030-3 0  99982 51652  87.8857  40.8650 0001859  68.2142 291.9183 13.10378280206287

JSON: /api/v1/satellites/51652 · /tle

For live sub-satellite position, see the globe view (requires WebGL).

§ Visibility from observer

Set your observer location to see the next 7 days of passes ≥ 10°. The values pass through the URL so the page stays shareable.

No JS? Fill the form by hand. The geolocation button needs JavaScript.